User: anonymous   Login
Location: Maiden_LMO
(35.5760°N, 81.2120°W)
Time: 22:36:11
(UTC-04:00)
Language:

ADEOS II - Orbit

View from above orbital plane
View from above orbital plane
View from above satellite
View from above satellite

Ground track
Ground track

The orbit data is extracted from the following two-line orbital elements,

1 27597U 02056A   16235.89767184 +.00000037 +00000-0 +31904-4 0  9991
2 27597 098.3279 212.8300 0002140 102.8857 257.2563 14.27228255712877
Epoch (UTC): 22 August 2016 21:32:38
Eccentricity: 0.0002140
inclination: 98.3279°
perigee height: 799 km
apogee height: 802 km
right ascension of ascending node: 212.8300°
argument of perigee: 102.8857°
revolutions per day: 14.27228255
mean anomaly at epoch: 257.2563°
orbit number at epoch: 71287

The dashed part of the orbit path shows where the satellite is in the earth's shadow,  

DLR